• In Netherlands
  • List of Countries
  • For 7 days
  • Water Temperature
  • Satellite Maps
  • Weather Map
  • Weather Widgets
  • user-avatar
    Login

    Hourly Weather Newcastle

    Today, 1 May, Monday

    Time Temperature Precipitation Wind Pressure Humidity
    00:00 +11°C° 0 mm 1 mps 765 mmHg 98%
    01:00 +12°C° 0 mm 1 mps 764 mmHg 98%
    02:00 +12°C° 0 mm 1 mps 764 mmHg 98%
    03:00 +12°C° 0 mm 2 mps 764 mmHg 98%
    04:00 +12°C° 0 mm 2 mps 764 mmHg 98%
    05:00 +12°C° 0 mm 2 mps 764 mmHg 98%
    06:00 +13°C° 0 mm 2 mps 764 mmHg 97%
    07:00 +13°C° 0 mm 2 mps 764 mmHg 96%
    08:00 +16°C° 0 mm 2 mps 764 mmHg 84%
    09:00 +18°C° 0 mm 3 mps 764 mmHg 71%
    10:00 +21°C° 0 mm 3 mps 764 mmHg 59%
    11:00 +24°C° 0 mm 3 mps 763 mmHg 52%
    12:00 +25°C° 0 mm 3 mps 762 mmHg 44%
    13:00 +27°C° 0 mm 3 mps 762 mmHg 37%
    14:00 +26°C° 0 mm 3 mps 762 mmHg 41%
    15:00 +26°C° 0 mm 3 mps 761 mmHg 44%
    16:00 +25°C° 0 mm 3 mps 761 mmHg 48%
    17:00 +22°C° 0 mm 3 mps 761 mmHg 56%
    18:00 +19°C° 0 mm 3 mps 762 mmHg 64%
    19:00 +17°C° 0 mm 4 mps 762 mmHg 72%
    20:00 +17°C° 0 mm 4 mps 762 mmHg 73%
    21:00 +16°C° 0 mm 3 mps 762 mmHg 74%
    22:00 +16°C° 0 mm 3 mps 762 mmHg 75%
    23:00 +14°C° 0 mm 3 mps 762 mmHg 77%

    Tomorrow, 2 May, Tuesday

    Time Temperature Precipitation Wind Pressure Humidity
    00:00 +14°C° 0 mm 3 mps 762 mmHg 79%
    01:00 +14°C° 0 mm 3 mps 762 mmHg 81%
    02:00 +13°C° 0 mm 3 mps 762 mmHg 81%
    03:00 +13°C° 0 mm 3 mps 762 mmHg 82%
    04:00 +13°C° 0 mm 3 mps 762 mmHg 83%
    05:00 +13°C° 0 mm 3 mps 762 mmHg 82%
    06:00 +13°C° 0 mm 3 mps 762 mmHg 81%
    07:00 +13°C° 0 mm 3 mps 762 mmHg 80%
    08:00 +17°C° 0 mm 2 mps 762 mmHg 69%
    09:00 +20°C° 0 mm 2 mps 763 mmHg 58%
    10:00 +24°C° 0 mm 2 mps 763 mmHg 47%
    11:00 +25°C° 0 mm 2 mps 762 mmHg 43%
    12:00 +26°C° 0 mm 2 mps 762 mmHg 38%
    13:00 +28°C° 0 mm 1 mps 761 mmHg 34%
    14:00 +27°C° 0 mm 1 mps 761 mmHg 40%
    15:00 +26°C° 0 mm 2 mps 761 mmHg 46%
    16:00 +25°C° 0 mm 2 mps 761 mmHg 52%
    17:00 +23°C° 0 mm 2 mps 761 mmHg 59%
    18:00 +20°C° 0 mm 2 mps 762 mmHg 66%
    19:00 +18°C° 0 mm 2 mps 763 mmHg 73%
    20:00 +18°C° 0.2 mm 2 mps 763 mmHg 77%
    21:00 +17°C° 0.2 mm 2 mps 763 mmHg 80%
    22:00 +17°C° 0.2 mm 2 mps 764 mmHg 83%
    23:00 +17°C° 0.1 mm 3 mps 764 mmHg 84%

    Day after tomorrow, 3 May, Wednesday

    Time Temperature Precipitation Wind Pressure Humidity
    00:00 +17°C° 0.1 mm 3 mps 764 mmHg 85%
    01:00 +17°C° 0.1 mm 4 mps 764 mmHg 85%
    02:00 +16°C° 0.1 mm 5 mps 764 mmHg 86%
    03:00 +16°C° 0.1 mm 5 mps 765 mmHg 87%
    04:00 +16°C° 0.1 mm 6 mps 765 mmHg 88%
    05:00 +16°C° 0.3 mm 6 mps 766 mmHg 88%
    06:00 +16°C° 0.3 mm 6 mps 766 mmHg 88%
    07:00 +16°C° 0.3 mm 5 mps 767 mmHg 87%
    08:00 +16°C° 0.3 mm 5 mps 768 mmHg 85%
    09:00 +16°C° 0.3 mm 5 mps 768 mmHg 83%
    10:00 +17°C° 0.3 mm 5 mps 769 mmHg 81%
    11:00 +17°C° 0.4 mm 5 mps 769 mmHg 78%
    12:00 +19°C° 0.4 mm 5 mps 768 mmHg 74%
    13:00 +19°C° 0.4 mm 6 mps 768 mmHg 70%
    14:00 +17°C° 0.2 mm 5 mps 768 mmHg 72%
    15:00 +17°C° 0.2 mm 5 mps 769 mmHg 74%
    16:00 +17°C° 0.2 mm 5 mps 769 mmHg 75%
    17:00 +16°C° 0.1 mm 5 mps 769 mmHg 78%
    18:00 +16°C° 0.1 mm 5 mps 770 mmHg 80%
    19:00 +15°C° 0.1 mm 4 mps 770 mmHg 83%
    20:00 +15°C° 0.2 mm 4 mps 771 mmHg 84%
    21:00 +14°C° 0.2 mm 4 mps 771 mmHg 86%
    22:00 +14°C° 0.2 mm 4 mps 772 mmHg 88%
    23:00 +14°C° 0.1 mm 4 mps 771 mmHg 88%

    4 May, Thursday

    Time Temperature Precipitation Wind Pressure Humidity
    00:00 +14°C° 0.1 mm 3 mps 771 mmHg 88%
    01:00 +14°C° 0.1 mm 3 mps 771 mmHg 87%
    02:00 +13°C° 0.1 mm 3 mps 771 mmHg 88%
    03:00 +13°C° 0.1 mm 3 mps 771 mmHg 88%
    04:00 +13°C° 0.1 mm 3 mps 771 mmHg 88%
    05:00 +12°C° 0.1 mm 3 mps 772 mmHg 89%
    06:00 +12°C° 0.1 mm 3 mps 772 mmHg 91%
    07:00 +12°C° 0.1 mm 3 mps 772 mmHg 92%
    08:00 +14°C° 0.3 mm 3 mps 773 mmHg 84%
    09:00 +17°C° 0.3 mm 3 mps 773 mmHg 76%
    10:00 +19°C° 0.3 mm 3 mps 773 mmHg 69%
    11:00 +19°C° 0.3 mm 3 mps 773 mmHg 69%
    12:00 +19°C° 0.3 mm 3 mps 772 mmHg 69%
    13:00 +19°C° 0.3 mm 3 mps 772 mmHg 70%
    14:00 +19°C° 0.3 mm 3 mps 772 mmHg 71%
    15:00 +18°C° 0.3 mm 3 mps 772 mmHg 73%
    16:00 +18°C° 0.3 mm 3 mps 772 mmHg 75%
    17:00 +17°C° 0.3 mm 3 mps 772 mmHg 81%
    18:00 +15°C° 0.3 mm 2 mps 773 mmHg 86%
    19:00 +14°C° 0.3 mm 2 mps 773 mmHg 91%
    20:00 +13°C° 0.3 mm 2 mps 773 mmHg 92%
    21:00 +13°C° 0.3 mm 2 mps 774 mmHg 93%
    22:00 +12°C° 0.3 mm 2 mps 774 mmHg 94%
    23:00 +12°C° 0.4 mm 2 mps 773 mmHg 94%

    5 May, Friday

    Time Temperature Precipitation Wind Pressure Humidity
    00:00 +12°C° 0.4 mm 2 mps 773 mmHg 94%
    01:00 +12°C° 0.4 mm 2 mps 773 mmHg 94%
    02:00 +12°C° 0.3 mm 2 mps 773 mmHg 95%
    03:00 +12°C° 0.3 mm 2 mps 773 mmHg 96%
    04:00 +12°C° 0.3 mm 2 mps 773 mmHg 98%
    05:00 +12°C° 0.2 mm 2 mps 773 mmHg 97%
    06:00 +12°C° 0.2 mm 2 mps 773 mmHg 97%
    07:00 +13°C° 0.2 mm 2 mps 774 mmHg 97%
    08:00 +15°C° 0.2 mm 2 mps 774 mmHg 89%
    09:00 +17°C° 0.2 mm 2 mps 774 mmHg 81%
    10:00 +20°C° 0.2 mm 2 mps 774 mmHg 72%
    11:00 +20°C° 0.1 mm 2 mps 773 mmHg 69%
    12:00 +21°C° 0.1 mm 2 mps 773 mmHg 66%
    13:00 +21°C° 0.1 mm 2 mps 772 mmHg 63%
    14:00 +21°C° 0 mm 2 mps 772 mmHg 65%
    15:00 +21°C° 0 mm 2 mps 772 mmHg 66%
    16:00 +20°C° 0 mm 3 mps 771 mmHg 67%
    17:00 +18°C° 0 mm 2 mps 772 mmHg 76%
    18:00 +16°C° 0 mm 2 mps 772 mmHg 84%
    19:00 +14°C° 0 mm 2 mps 773 mmHg 93%
    20:00 +14°C° 0 mm 2 mps 773 mmHg 94%
    21:00 +13°C° 0 mm 2 mps 772 mmHg 95%
    22:00 +13°C° 0 mm 2 mps 772 mmHg 96%
    23:00 +13°C° 0 mm 2 mps 772 mmHg 95%

    6 May, Saturday

    Time Temperature Precipitation Wind Pressure Humidity
    00:00 +13°C° 0 mm 2 mps 771 mmHg 95%
    01:00 +13°C° 0 mm 2 mps 771 mmHg 95%
    02:00 +13°C° 0 mm 2 mps 771 mmHg 96%
    03:00 +13°C° 0 mm 1 mps 771 mmHg 96%
    04:00 +12°C° 0 mm 1 mps 771 mmHg 97%
    05:00 +13°C° 0 mm 1 mps 771 mmHg 97%
    06:00 +13°C° 0 mm 1 mps 771 mmHg 97%
    07:00 +13°C° 0 mm 2 mps 771 mmHg 97%
    08:00 +15°C° 0 mm 2 mps 771 mmHg 86%
    09:00 +18°C° 0 mm 2 mps 770 mmHg 75%
    10:00 +21°C° 0 mm 2 mps 770 mmHg 64%
    11:00 +23°C° 0 mm 2 mps 769 mmHg 57%
    12:00 +24°C° 0 mm 2 mps 769 mmHg 51%
    13:00 +25°C° 0 mm 2 mps 768 mmHg 45%
    14:00 +25°C° 0 mm 2 mps 768 mmHg 48%
    15:00 +24°C° 0 mm 2 mps 767 mmHg 52%
    16:00 +24°C° 0 mm 2 mps 767 mmHg 55%
    17:00 +21°C° 0 mm 2 mps 767 mmHg 60%
    18:00 +19°C° 0 mm 3 mps 768 mmHg 65%
    19:00 +17°C° 0 mm 3 mps 768 mmHg 70%
    20:00 +16°C° 0 mm 3 mps 768 mmHg 72%
    21:00 +16°C° 0 mm 3 mps 768 mmHg 74%
    22:00 +14°C° 0 mm 3 mps 768 mmHg 77%
    23:00 +14°C° 0 mm 3 mps 768 mmHg 76%
    Show more